Temp
49 45 41 46 48 48 46 43 41 45 52 48 46 47 51 53 52 53 52 53 53 56 64 60 60 62 58 57 60 65 66 63 62 62 62 62 62 59 61 64 62 61 60 58
44 39 48 50 48 48 44 41 40 47 48 47 45 46 49 51 53 56 60 57 56 55 54 60 60 57 57 61 62 63 65 61 62 62 62 59 55 53 53 54 59 61 58 57
41 47 52 50 46 46 42 41 42 45 44 43 41 42 45 50 49 53 55 59 59 56 54 57 59 56 54 56 59 61 63 61 61 57 53 50 51 50 50 50 50 52 58 56
44 50 48 45 45 47 39 47 47 44 40 35 40 34 39 48 53 52 55 56 55 54 54 55 57 55 52 57 56 59 59 60 57 55 56 53 53 53 51 50 49 49 51 53
44 45 46 44 46 48 44 47 45 42 37 33 32 33 37 41 45 51 55 55 55 53 54 56 55 55 51 52 54 56 56 56 54 54 56 55 53 54 51 49 49 48 47 48
45 47 48 49 46 49 48 44 41 37 35 30 35 37 33 42 48 49 53 55 54 48 47 48 49 51 50 50 51 53 55 54 53 53 52 55 55 52 48 47 48 47 46 45
42 44 46 48 43 44 44 40 29 28 26 29 35 33 40 47 53 53 55 55 48 46 47 48 49 49 48 49 49 51 52 50 51 50 50 50 52 51 51 49 48 45 43 41
36 33 43 48 47 43 42 42 31 22 23 28 33 31 41 49 53 53 55 54 49 48 48 47 47 48 49 48 47 48 49 48 49 48 47 47 48 47 46 45 43 46 46 45
38 38 44 45 47 51 42 38 44 34 20 24 32 37 47 50 52 50 49 52 48 45 47 47 45 48 47 47 47 48 48 47 47 47 46 46 46 44 44 42 41 41 39 39
42 35 39 43 46 45 44 48 36 33 23 21 30 32 38 46 46 46 46 45 46 45 45 46 46 46 45 45 46 46 47 47 46 46 46 45 44 44 43 41 40 39 38 37
43 40 35 41 39 39 40 39 40 41 34 27 24 32 43 44 46 45 45 46 45 44 45 45 45 44 44 44 44 44 45 45 45 45 45 44 43 42 41 40 39 38 36 35
42 40 29 35 39 40 41 42 43 34 29 31 30 37 45 43 44 45 44 46 44 44 44 43 43 43 42 43 43 43 43 44 44 44 44 43 42 41 39 38 38 37 36 34
43 34 26 29 34 36 37 40 43 42 35 30 27 33 43 42 43 43 45 44 45 41 41 43 42 42 43 42 42 43 43 43 43 43 43 42 41 39 38 38 36 35 35 35
46 35 33 32 32 36 33 36 39 42 31 33 35 36 40 39 41 44 46 44 45 46 46 44 44 44 43 43 43 43 43 43 44 43 43 42 40 39 39 37 35 34 33 33
41 33 35 35 35 35 34 33 34 34 38 33 36 34 38 41 43 45 44 45 47 48 48 48 47 47 44 43 43 43 42 43 43 42 42 41 40 38 37 35 33 32 31 31
39 32 33 32 34 34 30 35 36 36 36 35 35 33 42 46 45 41 44 46 43 43 43 44 44 43 43 43 43 43 43 42 41 41 40 39 37 36 35 34 32 31 30 28
34 33 31 27 32 31 28 33 35 36 36 40 33 42 45 42 43 41 41 42 42 42 43 43 43 44 43 42 42 42 42 41 39 38 38 37 36 35 34 32 30 29 27 25
33 33 31 27 30 22 32 37 41 39 40 41 36 37 41 42 41 41 41 41 40 41 41 41 41 41 41 40 40 39 37 38 37 37 36 36 35 33 32 29 29 26 24 25
38 32 28 25 16 26 31 35 34 34 35 42 37 37 39 41 39 37 40 41 41 39 41 40 39 38 38 37 36 34 35 34 34 35 35 34 30 29 28 29 27 25 24 22
34 31 26 20 17 14 27 32 36 39 30 33 38 37 37 38 33 37 39 39 40 39 39 38 37 37 35 36 33 33 34 33 34 34 34 30 29 29 28 27 24 21 21 24
28 29 26 20 13 19 32 34 36 28 29 33 37 36 33 32 36 40 39 39 38 38 38 37 35 36 36 34 33 33 33 33 34 33 28 26 25 25 25 22 20 19 20 24
27 27 26 23 20 18 33 34 32 33 33 35 35 36 36 35 35 36 36 37 37 37 36 36 35 35 34 33 32 32 32 34 32 28 26 23 20 23 22 19 17 19 19 23
21 26 22 27 27 31 30 30 34 36 34 34 35 36 36 33 33 33 35 35 34 34 35 35 34 33 33 32 28 28 32 30 27 22 20 18 18 21 20 18 18 19 20 20
24 28 24 26 28 30 32 35 36 35 35 36 36 36 35 32 34 34 34 34 33 34 34 31 28 28 29 27 28 29 29 28 24 24 22 21 22 22 21 23 23 27 25 21
26 29 23 21 28 31 33 35 36 35 36 36 34 33 32 31 30 31 31 32 32 32 28 26 26 27 27 24 24 23 24 20 21 19 20 19 20 19 19 23 27 27 28 28
28 27 26 23 32 31 32 34 36 35 33 32 31 30 31 31 30 28 28 29 28 27 24 24 22 20 22 20 20 16 15 16 16 19 19 19 19 17 19 25 22 32 32 32
MSLP
1015.93 1016.66 1016.93 1017.12 1016.97 1016.75 1017.07 1017.17 1016.97 1016.58 1016.30 1016.72 1017.01 1016.87 1016.40 1015.74 1015.92 1015.67 1015.71 1015.16 1014.82 1014.56 1013.36 1013.58 1013.50 1013.55 1014.01 1014.60 1014.89 1015.15 1015.67 1016.29 1017.04 1017.82 1018.51 1019.14 1019.30 1019.92 1020.16 1020.45 1020.99 1021.66 1022.36 1022.99
1017.00 1017.00 1016.83 1016.88 1017.11 1017.10 1017.17 1017.29 1017.24 1016.89 1016.70 1016.98 1017.03 1016.91 1016.20 1015.87 1015.34 1014.74 1014.25 1014.03 1013.55 1013.49 1013.27 1013.09 1013.06 1013.19 1013.39 1013.57 1014.02 1014.53 1014.87 1015.67 1016.34 1017.05 1017.72 1018.65 1019.30 1020.03 1020.52 1020.66 1020.85 1021.18 1021.87 1022.54
1016.81 1016.61 1016.42 1016.89 1017.08 1017.36 1017.24 1017.30 1017.36 1017.34 1017.22 1017.35 1017.54 1016.86 1016.06 1014.91 1014.56 1013.91 1013.51 1012.85 1012.62 1012.63 1012.85 1012.68 1012.67 1012.78 1012.93 1013.14 1013.37 1013.76 1014.25 1015.07 1015.80 1016.67 1017.68 1018.80 1019.71 1020.27 1020.81 1021.03 1021.10 1021.31 1021.40 1022.04
1016.64 1016.12 1016.37 1016.75 1016.95 1017.07 1017.29 1017.03 1017.25 1017.53 1018.18 1018.57 1018.17 1016.99 1016.01 1014.99 1014.24 1013.64 1012.72 1012.21 1011.73 1011.86 1012.04 1012.22 1012.34 1012.48 1012.54 1012.45 1012.90 1013.41 1014.13 1014.90 1015.78 1016.50 1017.37 1018.01 1018.58 1019.45 1020.10 1020.52 1020.99 1021.30 1021.55 1021.78
1015.74 1015.90 1016.32 1016.68 1016.80 1017.12 1017.31 1017.25 1017.67 1018.18 1018.93 1019.27 1019.00 1018.99 1015.40 1015.09 1014.42 1013.30 1011.79 1011.44 1011.22 1011.49 1011.52 1011.47 1011.77 1011.82 1012.22 1012.47 1012.79 1013.49 1014.12 1014.97 1015.67 1016.30 1016.85 1017.50 1018.24 1018.71 1019.61 1020.40 1020.96 1021.43 1021.64 1021.97
1015.67 1015.58 1015.66 1015.69 1016.35 1016.78 1017.46 1018.04 1018.82 1019.61 1020.20 1020.06 1019.10 1019.03 1015.83 1014.71 1013.23 1012.40 1011.54 1011.18 1011.03 1011.18 1011.51 1011.68 1011.93 1012.21 1012.56 1012.90 1013.34 1013.94 1014.53 1015.14 1015.71 1016.35 1016.91 1017.34 1017.94 1018.69 1019.56 1020.40 1020.93 1021.34 1021.69 1021.96
1015.89 1015.76 1015.55 1015.60 1016.52 1017.09 1017.45 1018.72 1020.27 1021.01 1021.35 1019.94 1018.84 1018.74 1014.99 1013.33 1012.30 1012.09 1011.65 1011.27 1011.40 1011.76 1012.03 1012.32 1012.58 1012.91 1013.18 1013.50 1013.73 1014.23 1014.81 1015.48 1015.99 1016.48 1016.95 1017.33 1017.77 1018.28 1018.98 1019.71 1020.34 1020.84 1021.35 1021.67
1015.54 1016.06 1015.35 1015.09 1015.33 1016.19 1017.01 1017.51 1018.96 1020.19 1021.23 1020.35 1019.47 1017.34 1013.98 1012.32 1011.52 1011.54 1011.49 1011.48 1011.88 1012.34 1012.68 1012.97 1013.20 1013.35 1013.64 1014.02 1014.48 1014.88 1015.39 1015.90 1016.32 1016.69 1017.20 1017.52 1017.87 1018.37 1018.91 1019.40 1019.88 1020.24 1020.65 1020.81
1014.89 1014.94 1014.44 1014.41 1014.82 1015.07 1016.93 1017.07 1017.33 1019.10 1020.74 1020.47 1018.44 1016.18 1013.99 1012.49 1011.98 1012.11 1012.19 1012.17 1012.51 1012.91 1013.31 1013.63 1013.89 1014.23 1014.50 1014.74 1014.99 1015.16 1015.58 1016.19 1016.72 1016.99 1017.38 1017.67 1018.03 1018.44 1018.78 1019.11 1019.50 1019.90 1020.26 1020.69
1013.87 1014.61 1014.78 1014.84 1014.96 1015.10 1015.17 1015.90 1017.43 1018.57 1019.86 1019.90 1017.82 1016.38 1014.21 1013.04 1013.07 1013.07 1013.03 1012.80 1012.91 1013.28 1013.67 1014.19 1014.65 1014.92 1015.21 1015.30 1015.42 1015.66 1015.92 1016.28 1016.76 1017.14 1017.44 1017.84 1018.11 1018.46 1018.73 1019.14 1019.47 1019.67 1020.02 1020.52
1013.98 1014.50 1015.72 1015.47 1015.17 1015.00 1015.55 1015.75 1016.38 1017.13 1018.08 1018.04 1017.51 1015.65 1013.88 1013.49 1013.42 1013.82 1013.87 1013.83 1013.54 1013.81 1014.30 1014.76 1015.20 1015.52 1015.78 1015.84 1015.88 1016.00 1016.29 1016.47 1016.91 1017.29 1017.49 1017.91 1018.09 1018.47 1018.78 1018.97 1019.40 1019.69 1019.97 1020.32
1014.24 1014.67 1015.93 1015.61 1015.25 1015.07 1014.87 1014.89 1015.39 1016.35 1017.37 1017.43 1016.91 1014.85 1013.91 1014.14 1014.35 1014.15 1014.34 1014.25 1014.15 1014.13 1014.46 1014.96 1015.39 1015.70 1015.91 1016.25 1016.18 1016.27 1016.49 1016.66 1016.96 1017.17 1017.44 1017.79 1018.07 1018.38 1018.63 1018.88 1019.22 1019.55 1019.83 1020.18
1014.36 1015.19 1016.18 1016.44 1016.44 1015.89 1015.48 1015.32 1015.32 1015.86 1016.46 1016.42 1017.04 1014.88 1014.55 1014.48 1014.56 1014.43 1014.43 1014.26 1014.40 1014.39 1014.68 1015.15 1015.50 1015.86 1016.06 1016.32 1016.35 1016.50 1016.50 1016.77 1017.11 1017.35 1017.55 1017.79 1017.96 1018.24 1018.54 1018.75 1019.01 1019.35 1019.65 1019.92
1014.61 1015.68 1015.81 1015.62 1015.64 1015.73 1016.03 1015.51 1015.49 1015.82 1016.63 1015.91 1015.03 1015.31 1015.29 1014.86 1014.87 1014.65 1014.45 1014.30 1014.28 1014.37 1014.64 1015.13 1015.68 1015.93 1016.27 1016.35 1016.34 1016.30 1016.44 1016.63 1016.75 1016.91 1017.23 1017.38 1017.48 1017.71 1018.07 1018.42 1018.75 1019.16 1019.49 1019.74
1015.04 1015.70 1016.11 1016.26 1016.28 1016.37 1016.21 1016.04 1016.02 1015.78 1015.45 1015.77 1014.89 1015.08 1015.09 1015.00 1014.92 1014.82 1014.53 1014.40 1014.50 1014.93 1015.38 1015.72 1015.71 1016.31 1016.18 1016.66 1016.73 1016.46 1016.52 1016.57 1016.51 1016.64 1016.70 1016.71 1016.86 1017.15 1017.49 1017.91 1018.49 1018.93 1019.44 1019.72
1015.50 1015.89 1016.42 1016.78 1016.78 1016.65 1016.55 1016.13 1016.02 1015.97 1016.01 1015.70 1015.72 1015.11 1014.95 1014.66 1014.91 1015.15 1015.07 1014.71 1014.78 1015.33 1016.27 1016.06 1016.16 1016.60 1016.68 1016.92 1016.86 1016.59 1016.44 1016.37 1016.47 1016.60 1016.40 1016.47 1016.76 1016.91 1017.17 1017.57 1018.14 1018.78 1019.33 1019.74
1015.87 1016.22 1016.87 1017.22 1017.02 1017.11 1016.53 1014.77 1014.98 1014.93 1014.92 1014.28 1014.78 1013.43 1014.16 1014.82 1015.22 1015.31 1015.64 1015.51 1015.65 1016.11 1016.46 1016.41 1016.51 1016.58 1016.85 1016.94 1017.07 1016.90 1016.68 1016.58 1016.32 1016.29 1016.27 1016.36 1016.77 1016.99 1017.10 1017.52 1017.92 1018.52 1019.07 1019.51
1015.74 1016.30 1017.00 1017.42 1017.40 1016.72 1013.85 1013.16 1013.18 1013.72 1013.99 1014.20 1014.32 1014.21 1014.19 1014.77 1015.27 1015.58 1015.89 1016.11 1016.36 1016.61 1016.78 1016.96 1017.12 1017.14 1017.22 1017.28 1017.33 1017.09 1016.89 1016.80 1016.41 1016.45 1016.43 1016.35 1016.66 1016.78 1017.02 1017.64 1018.02 1018.49 1018.96 1019.38
1015.44 1016.21 1017.06 1017.59 1017.63 1015.71 1013.97 1013.33 1013.45 1013.59 1013.21 1013.61 1014.55 1015.19 1015.32 1015.42 1015.85 1016.45 1016.44 1016.20 1016.34 1016.62 1016.86 1017.10 1017.24 1017.34 1017.43 1017.56 1017.57 1017.52 1017.21 1016.78 1016.50 1016.28 1015.99 1016.04 1016.33 1016.78 1017.26 1017.64 1017.96 1018.32 1018.58 1018.82
1015.78 1015.96 1016.76 1018.00 1017.82 1016.25 1014.06 1012.90 1012.81 1013.09 1013.54 1013.49 1014.22 1015.39 1015.88 1016.30 1016.56 1016.34 1016.41 1016.52 1016.78 1016.96 1016.97 1017.08 1017.32 1017.50 1017.60 1017.47 1017.48 1017.46 1017.19 1016.91 1016.69 1016.32 1016.15 1016.06 1016.16 1016.59 1016.82 1017.09 1017.63 1018.11 1018.30 1018.43
1016.21 1016.40 1016.83 1017.43 1017.33 1015.77 1013.48 1013.31 1013.48 1013.95 1014.05 1013.88 1014.44 1015.43 1016.05 1016.60 1016.74 1016.74 1016.72 1016.73 1016.83 1016.88 1016.92 1017.07 1017.33 1017.45 1017.31 1017.26 1017.33 1017.37 1017.20 1016.90 1016.35 1016.23 1016.38 1016.47 1016.38 1016.60 1016.65 1017.10 1017.59 1017.87 1018.20 1018.30
1015.69 1016.15 1016.41 1016.92 1016.89 1015.51 1013.38 1013.79 1013.71 1013.39 1013.99 1014.35 1014.94 1015.66 1016.20 1016.66 1016.98 1017.09 1016.97 1017.02 1017.16 1017.13 1017.08 1017.25 1017.51 1017.54 1017.31 1017.32 1017.39 1017.30 1017.03 1016.57 1016.52 1016.52 1016.69 1016.79 1016.81 1016.96 1017.17 1017.65 1017.70 1017.79 1018.36 1018.63
1015.87 1014.91 1015.46 1015.56 1014.79 1013.91 1013.65 1013.37 1013.37 1013.41 1013.97 1014.78 1015.12 1015.79 1016.24 1016.65 1017.08 1017.41 1017.35 1017.23 1017.18 1017.23 1017.30 1017.29 1017.46 1017.55 1017.30 1017.29 1017.31 1017.37 1016.74 1016.68 1016.87 1016.96 1017.06 1017.15 1017.01 1017.11 1017.28 1017.73 1017.98 1018.24 1018.20 1018.35
1015.47 1014.98 1015.20 1015.39 1014.69 1014.22 1013.98 1013.86 1013.91 1014.11 1014.55 1015.14 1015.49 1016.02 1016.42 1016.93 1017.33 1017.52 1017.66 1017.77 1017.87 1017.78 1017.72 1017.74 1017.91 1017.80 1017.67 1017.59 1017.50 1017.42 1017.16 1016.95 1017.18 1017.15 1017.12 1017.24 1017.28 1017.11 1017.03 1017.21 1017.67 1017.77 1017.65 1018.19
1014.71 1014.77 1014.86 1015.15 1014.91 1014.74 1014.55 1014.29 1014.50 1015.00 1015.18 1015.57 1015.83 1016.17 1016.59 1017.19 1017.57 1017.96 1018.27 1018.35 1018.43 1018.59 1018.61 1018.60 1018.70 1018.51 1018.14 1017.94 1017.81 1017.60 1017.30 1017.24 1017.40 1017.32 1017.30 1017.22 1017.22 1017.26 1017.13 1016.77 1016.67 1017.28 1017.12 1017.21
1013.92 1013.74 1014.00 1013.77 1013.93 1014.13 1014.53 1014.79 1014.94 1015.48 1015.88 1016.11 1016.47 1016.85 1017.36 1017.89 1018.38 1018.67 1018.85 1018.98 1019.22 1019.31 1019.32 1019.17 1019.19 1019.18 1018.75 1018.59 1018.40 1018.33 1018.16 1017.94 1017.71 1017.49 1017.28 1017.07 1017.01 1017.07 1017.07 1017.10 1016.49 1016.36 1016.69 1016.91
Wind_Speed
0 4 7 10 9 5 5 4 2 3 4 5 8 9 12 9 8 10 11 12 12 14 15 9 10 13 9 7 10 14 16 12 11 9 10 9 9 4 6 8 12 14 10 11
4 5 9 6 3 5 3 4 4 5 0 4 4 11 11 8 9 12 16 14 16 8 6 11 10 9 11 14 16 14 16 14 13 11 9 4 4 3 2 3 6 11 12 12
8 6 8 6 5 6 5 6 5 7 3 3 4 9 8 7 6 7 11 17 14 11 11 11 10 10 9 11 14 15 15 15 13 10 8 4 5 4 3 1 2 2 10 12
6 4 6 5 5 6 5 5 5 3 3 4 2 10 5 5 10 7 12 11 14 10 7 7 9 8 10 13 8 9 11 13 9 11 10 8 6 6 3 4 2 3 4 9
9 8 8 5 7 7 7 4 5 3 2 1 1 3 8 3 6 12 12 12 11 9 9 10 9 7 6 7 8 8 8 9 9 10 10 7 5 4 3 3 6 4 4 5
5 0 7 10 3 6 7 6 8 5 3 5 8 8 4 5 8 5 6 9 9 2 3 4 4 4 4 5 7 7 8 8 9 9 7 9 9 7 5 4 5 5 4 4
2 3 2 5 7 3 5 7 3 3 1 9 3 3 6 6 8 8 8 7 4 3 5 4 6 4 4 6 7 6 7 5 6 8 8 8 8 9 11 9 7 7 5 3
9 5 9 7 9 11 9 10 9 10 6 5 4 9 8 10 8 9 7 7 4 4 1 2 3 4 4 4 5 5 7 5 6 7 6 6 6 4 5 6 5 6 7 8
8 8 2 4 5 12 7 8 6 5 2 4 6 7 9 8 10 6 8 6 4 2 2 4 2 1 2 3 3 5 6 5 5 6 6 6 5 6 6 7 6 4 4 4
5 1 2 2 2 1 7 9 4 2 3 4 6 6 8 4 3 5 9 10 4 3 3 2 1 1 0 2 3 3 3 6 5 6 6 5 6 6 6 5 7 7 6 6
5 4 2 5 7 10 4 5 4 6 6 7 3 8 6 5 4 4 5 6 5 3 2 2 2 1 1 0 2 2 2 3 4 5 5 6 6 6 6 5 6 6 5 7
2 4 6 7 2 1 1 5 9 6 5 5 4 9 2 3 3 6 4 5 4 2 1 1 1 1 1 2 1 2 2 3 4 5 6 6 5 6 6 6 6 6 7 6
7 1 3 6 5 3 5 5 5 4 3 9 7 7 2 2 5 4 5 3 1 1 2 2 3 3 4 3 2 3 3 4 4 4 6 6 6 6 6 6 6 6 6 6
6 4 6 12 4 3 6 5 4 8 6 6 14 7 8 5 4 5 7 5 3 4 4 2 3 4 3 5 5 5 5 6 6 6 7 7 7 7 7 6 6 6 6 6
6 8 8 4 6 4 4 5 6 8 8 12 6 6 3 9 6 6 3 4 4 5 5 4 2 5 2 4 5 5 5 6 6 7 7 8 6 7 7 7 7 6 6 5
2 3 3 7 6 5 6 11 10 7 5 7 7 17 9 8 2 4 4 5 8 7 6 5 7 6 7 5 5 6 6 6 5 7 8 6 6 6 7 6 7 6 6 5
5 5 5 4 7 5 8 20 16 7 9 15 13 16 6 3 2 3 5 7 6 5 5 6 6 5 5 5 6 6 7 6 5 6 7 6 6 6 6 6 6 6 7 5
8 6 4 2 7 6 6 1 17 19 5 13 3 3 7 5 4 6 3 6 5 2 2 3 3 5 5 4 5 6 6 6 6 6 7 5 6 6 5 5 6 4 4 6
7 5 4 4 3 6 4 6 9 14 14 15 7 5 2 4 5 1 3 3 3 1 1 2 2 2 4 5 5 6 6 5 4 6 5 5 4 5 5 6 6 4 4 5
4 4 5 3 6 11 7 3 2 4 6 6 10 8 6 7 4 4 3 3 4 3 2 2 2 2 3 3 4 6 6 6 7 6 6 3 5 6 7 6 6 3 3 4
5 4 8 4 3 9 8 2 2 9 7 5 7 7 4 3 2 1 5 4 2 3 5 3 4 5 6 4 3 6 6 7 5 5 4 4 2 4 4 3 3 3 3 4
9 7 5 3 3 10 6 4 8 4 4 7 6 6 6 4 3 4 7 6 6 6 4 4 5 6 6 4 3 6 7 5 5 4 4 3 3 2 2 3 2 3 4 3
3 7 7 9 7 2 3 3 3 3 7 5 7 5 4 1 1 4 5 7 7 7 6 3 4 6 6 6 2 6 5 5 4 3 4 2 1 2 3 4 3 1 3 2
4 3 3 5 3 4 5 4 4 4 6 6 6 5 4 1 4 5 6 6 5 6 6 4 4 5 6 3 4 5 6 5 3 4 3 2 3 3 4 3 3 4 4 3
5 8 7 1 2 4 2 5 7 6 7 4 2 1 2 2 4 3 4 5 4 5 3 3 4 6 7 5 6 5 5 2 4 3 3 3 2 3 2 3 5 5 4 6
6 7 6 6 10 5 5 6 6 5 2 3 2 1 2 2 3 3 4 3 4 6 5 6 4 5 7 6 6 4 5 4 3 4 3 3 3 3 3 3 2 9 10 12
Wind_Direction
214 119 187 199 197 158 153 180 195 245 209 154 218 257 263 278 308 284 258 252 247 237 242 237 229 219 210 197 186 190 187 176 163 168 173 186 182 167 181 184 181 178 175 172
47 224 219 200 166 184 171 193 253 289 263 159 275 261 257 254 244 235 256 256 249 248 227 245 236 218 200 198 196 189 191 173 174 176 175 165 152 132 117 130 167 178 171 171
165 219 186 164 169 176 202 186 204 216 6 320 311 273 257 274 245 263 254 256 265 241 230 237 243 222 208 194 189 189 188 178 176 151 121 84 79 72 106 149 139 169 180 178
217 226 146 153 187 146 218 205 178 176 81 240 57 286 279 249 273 277 273 263 252 250 244 238 237 237 208 208 176 171 164 169 158 154 158 160 170 159 172 154 146 170 167 193
228 169 185 170 202 178 220 163 164 137 162 22 281 311 273 307 278 262 256 265 272 244 243 247 233 237 228 157 155 151 143 152 152 164 170 157 138 122 122 127 157 181 170 189
185 346 162 188 127 156 144 73 41 49 75 284 182 184 255 206 220 267 254 269 285 249 69 62 71 114 113 107 115 132 148 163 160 161 151 168 166 151 141 152 184 186 186 181
129 208 178 130 89 66 113 87 0 334 357 237 237 202 246 261 252 233 273 282 240 145 113 109 107 92 89 133 150 148 152 148 143 150 167 171 173 174 181 178 191 178 175 180
165 239 171 187 173 171 190 160 168 194 199 249 91 237 254 236 287 256 281 300 177 198 171 145 139 140 143 112 97 117 140 142 166 167 168 172 182 169 174 180 182 192 198 198
170 242 201 161 155 150 199 210 160 90 46 55 226 292 298 273 271 359 330 286 267 201 205 224 184 141 136 136 137 142 142 128 166 179 166 183 185 175 190 194 184 192 176 177
190 125 45 181 132 100 164 153 82 350 159 239 255 259 233 274 161 16 1 342 268 197 170 302 306 318 347 155 177 163 162 167 176 187 178 182 189 196 195 182 197 192 190 178
159 128 301 126 204 170 151 188 186 148 165 183 244 255 224 225 146 96 4 351 30 136 174 245 286 304 237 197 153 168 189 190 197 201 196 199 199 201 203 195 202 201 181 186
175 168 180 199 205 188 330 219 180 171 230 233 159 256 279 73 90 96 45 2 359 60 168 214 216 185 111 234 200 216 236 232 224 215 204 214 216 201 200 204 203 189 197 186
175 223 91 351 351 336 209 186 206 125 84 210 153 249 34 94 76 58 48 29 288 195 161 165 158 190 209 230 247 252 244 247 260 236 222 219 218 208 209 207 196 192 188 187
103 162 201 230 183 154 186 172 185 188 197 202 231 170 232 248 326 302 313 314 243 236 222 198 230 217 257 247 232 233 243 224 226 220 225 227 212 197 198 201 195 197 199 186
150 192 199 197 155 144 165 172 189 210 209 193 252 251 257 282 264 243 289 315 21 359 25 334 18 320 293 276 277 277 266 254 232 233 231 233 210 200 195 192 195 196 196 198
206 169 131 203 184 164 192 205 197 189 199 268 261 263 218 266 358 72 55 101 92 59 31 34 42 29 27 356 324 304 290 276 237 248 246 236 212 202 207 194 187 187 195 190
146 141 154 225 166 124 271 216 202 192 208 194 203 232 144 105 116 63 47 45 61 44 4 8 14 13 353 350 333 323 317 313 267 255 256 236 228 222 212 191 176 188 187 164
153 147 131 172 144 206 266 266 202 210 212 226 35 135 157 148 131 137 125 115 96 70 353 337 326 328 331 323 311 315 314 302 301 278 273 256 224 221 191 179 195 165 158 192
156 140 154 176 215 300 274 202 170 174 237 216 174 159 192 132 115 211 195 152 140 175 306 288 289 287 313 314 319 306 305 306 299 289 280 256 197 204 184 202 200 184 174 175
132 93 122 136 170 207 243 269 120 117 274 167 139 153 157 147 169 174 122 348 336 343 257 270 269 259 276 290 306 316 318 327 316 313 300 252 206 200 199 198 187 178 174 188
170 159 186 174 217 287 246 163 176 142 234 134 120 138 134 117 181 279 328 331 292 293 311 312 324 301 290 306 318 309 310 299 284 301 303 292 249 215 207 157 146 162 167 147
175 174 178 143 168 261 185 121 176 170 99 123 119 133 126 145 316 324 319 321 327 325 332 326 317 305 306 311 298 294 295 290 302 307 302 293 273 228 141 167 158 138 138 185
213 181 177 181 212 252 237 165 95 99 116 124 119 121 116 86 303 311 305 325 327 323 314 302 283 300 303 309 270 290 280 325 310 319 286 266 195 182 159 146 155 112 144 164
272 146 175 86 226 159 129 89 99 99 112 122 118 123 129 206 271 280 307 312 322 323 328 327 324 300 293 282 284 248 291 307 282 269 257 223 200 182 161 149 162 190 176 205
184 145 164 255 44 91 19 111 123 99 97 107 128 117 286 287 284 275 292 299 301 303 298 290 293 291 285 305 301 308 307 295 265 259 253 238 215 217 216 196 173 206 204 200
185 167 171 208 178 153 174 158 136 133 179 209 201 334 27 12 331 331 331 330 336 332 329 320 291 279 291 308 307 332 349 334 258 248 243 228 207 208 203 216 220 226 228 231